GEFSCGP_prec_meanprecacc_168.txt.gz
Total_Precipitation_Accumulation
0.00 0.00 0.01 0.01 0.01 0.02 0.03 0.06 0.14 0.21 0.17 0.25 0.32 0.43 0.58 0.75 0.98 1.02 1.10 1.21 1.43 1.73 2.13 2.79 3.48 4.05 4.71 5.45 5.97 5.83 5.17 4.63 4.03 3.46 2.86 2.67 2.38 2.14 1.89 1.67 1.47 1.43 1.35 1.13
0.01 0.03 0.03 0.02 0.02 0.03 0.04 0.07 0.13 0.18 0.14 0.14 0.26 0.52 0.67 0.76 0.93 0.89 0.91 0.94 1.13 1.48 2.09 2.87 3.48 3.68 3.68 3.93 4.17 3.67 3.44 3.38 2.97 2.62 2.47 2.29 2.05 1.83 1.62 1.49 1.41 1.20 1.14 1.07
0.02 0.04 0.03 0.02 0.03 0.04 0.07 0.09 0.09 0.15 0.16 0.22 0.36 0.68 0.90 0.83 0.82 0.71 0.70 0.91 1.38 1.77 2.21 2.72 2.89 2.90 2.79 2.75 2.72 2.47 2.39 2.64 2.53 2.42 2.32 2.23 2.12 1.99 1.72 1.43 1.33 1.13 0.97 0.95
0.01 0.03 0.03 0.04 0.04 0.04 0.07 0.06 0.04 0.04 0.12 0.34 0.50 0.90 1.06 0.99 0.92 0.65 0.69 1.08 1.58 1.90 2.17 2.16 1.77 1.65 1.79 1.87 1.95 2.16 2.22 2.30 2.16 2.14 1.92 1.71 1.53 1.36 1.25 1.22 1.18 1.18 1.04 0.93
0.03 0.03 0.03 0.04 0.04 0.03 0.04 0.04 0.03 0.05 0.15 0.39 0.65 1.06 1.24 1.02 0.84 0.60 0.57 0.66 1.04 1.25 1.23 1.02 0.89 0.97 1.19 1.43 1.66 2.01 2.09 2.06 1.93 1.83 1.78 1.78 1.65 1.57 1.44 1.39 1.40 1.37 1.34 1.18
0.04 0.04 0.04 0.03 0.03 0.03 0.03 0.04 0.10 0.20 0.37 0.82 0.86 0.95 1.17 0.98 0.78 0.60 0.41 0.45 0.70 0.74 0.59 0.61 0.70 0.89 1.12 1.28 1.38 1.57 1.72 1.88 1.91 1.90 1.90 1.82 1.74 1.75 1.57 1.41 1.30 1.28 1.29 1.23
0.09 0.08 0.06 0.04 0.03 0.04 0.03 0.05 0.25 0.60 0.89 1.01 0.72 0.86 1.16 0.78 0.52 0.40 0.28 0.26 0.29 0.34 0.43 0.60 0.66 0.86 0.97 1.08 1.10 1.19 1.30 1.48 1.59 1.67 1.76 1.78 1.77 1.76 1.55 1.41 1.27 1.23 1.13 1.07
0.14 0.14 0.08 0.04 0.05 0.05 0.04 0.03 0.10 0.21 0.33 0.52 0.68 1.07 1.15 0.75 0.40 0.24 0.19 0.19 0.18 0.23 0.29 0.34 0.38 0.48 0.61 0.78 0.97 1.12 1.15 1.15 1.17 1.22 1.39 1.56 1.57 1.57 1.48 1.46 1.26 1.18 1.10 1.09
0.04 0.04 0.04 0.04 0.05 0.03 0.03 0.03 0.04 0.05 0.08 0.31 0.73 1.00 0.92 0.58 0.40 0.28 0.24 0.24 0.21 0.21 0.28 0.25 0.25 0.31 0.40 0.46 0.61 0.83 0.90 0.90 0.91 0.97 1.10 1.20 1.26 1.35 1.41 1.35 1.21 1.08 1.09 1.11
0.02 0.02 0.03 0.03 0.03 0.04 0.04 0.03 0.03 0.05 0.10 0.23 0.56 1.03 1.17 0.80 0.55 0.39 0.32 0.25 0.21 0.22 0.23 0.26 0.27 0.27 0.29 0.32 0.45 0.61 0.75 0.78 0.80 0.84 0.92 0.90 1.03 1.13 1.23 1.23 1.19 1.05 1.01 1.08
0.02 0.01 0.02 0.03 0.04 0.06 0.05 0.04 0.05 0.06 0.07 0.15 0.41 0.66 0.65 0.67 0.52 0.34 0.31 0.26 0.21 0.22 0.25 0.30 0.25 0.29 0.26 0.25 0.33 0.45 0.62 0.70 0.65 0.69 0.76 0.86 0.94 1.09 1.16 1.12 1.13 1.07 1.04 1.06
0.02 0.01 0.02 0.04 0.06 0.06 0.07 0.07 0.07 0.08 0.08 0.11 0.20 0.33 0.37 0.40 0.43 0.47 0.39 0.33 0.32 0.32 0.27 0.28 0.23 0.26 0.20 0.22 0.28 0.37 0.44 0.52 0.56 0.62 0.72 0.80 0.86 0.98 1.10 1.05 1.09 1.15 1.11 1.09
0.02 0.01 0.03 0.10 0.15 0.14 0.10 0.09 0.08 0.08 0.08 0.08 0.19 0.33 0.33 0.29 0.32 0.38 0.36 0.40 0.42 0.35 0.32 0.25 0.23 0.22 0.18 0.19 0.23 0.30 0.40 0.50 0.55 0.58 0.70 0.78 0.78 0.86 0.99 1.05 1.05 1.10 1.13 1.16
0.02 0.02 0.02 0.08 0.16 0.20 0.19 0.14 0.10 0.07 0.06 0.06 0.10 0.22 0.22 0.32 0.40 0.37 0.39 0.45 0.40 0.26 0.25 0.22 0.20 0.20 0.24 0.25 0.27 0.35 0.46 0.50 0.56 0.58 0.65 0.75 0.79 0.91 1.03 1.07 1.07 1.09 1.08 1.13
0.02 0.02 0.02 0.02 0.06 0.12 0.17 0.16 0.11 0.06 0.05 0.06 0.07 0.13 0.20 0.35 0.46 0.47 0.46 0.47 0.41 0.30 0.28 0.24 0.25 0.26 0.28 0.32 0.36 0.44 0.56 0.59 0.65 0.78 0.86 0.93 0.95 1.02 1.13 1.19 1.14 1.19 1.19 1.19
0.04 0.04 0.03 0.03 0.05 0.08 0.11 0.14 0.09 0.06 0.06 0.05 0.07 0.14 0.25 0.42 0.47 0.49 0.44 0.41 0.38 0.37 0.31 0.28 0.30 0.34 0.34 0.36 0.44 0.50 0.58 0.67 0.83 1.11 1.23 1.23 1.27 1.31 1.31 1.30 1.26 1.33 1.41 1.54
0.11 0.09 0.07 0.05 0.07 0.08 0.13 0.12 0.10 0.09 0.08 0.08 0.12 0.20 0.28 0.39 0.53 0.60 0.52 0.40 0.38 0.36 0.37 0.37 0.39 0.46 0.46 0.48 0.52 0.55 0.60 0.69 0.87 1.10 1.23 1.33 1.36 1.38 1.43 1.43 1.45 1.45 1.51 1.59
0.19 0.19 0.15 0.10 0.10 0.17 0.15 0.14 0.14 0.13 0.13 0.16 0.24 0.34 0.36 0.38 0.45 0.49 0.41 0.40 0.43 0.43 0.47 0.51 0.52 0.57 0.58 0.59 0.61 0.68 0.80 0.93 1.03 1.14 1.26 1.41 1.45 1.50 1.52 1.48 1.42 1.40 1.42 1.42
0.24 0.27 0.24 0.21 0.20 0.18 0.16 0.19 0.21 0.20 0.25 0.28 0.39 0.49 0.53 0.51 0.51 0.59 0.52 0.49 0.50 0.54 0.56 0.60 0.64 0.68 0.74 0.81 0.81 0.85 1.01 1.14 1.20 1.26 1.41 1.51 1.59 1.67 1.60 1.49 1.43 1.33 1.31 1.23
0.29 0.32 0.38 0.32 0.34 0.33 0.26 0.30 0.29 0.31 0.51 0.48 0.53 0.64 0.72 0.72 0.87 0.92 0.70 0.65 0.59 0.56 0.59 0.63 0.74 0.81 0.86 0.97 1.02 1.03 1.10 1.13 1.19 1.23 1.32 1.45 1.53 1.65 1.68 1.58 1.52 1.45 1.42 1.33
0.41 0.44 0.41 0.41 0.43 0.38 0.35 0.34 0.35 0.62 0.84 0.76 0.73 0.73 0.82 0.92 0.86 0.81 0.67 0.65 0.63 0.56 0.57 0.60 0.68 0.80 0.87 0.95 1.04 1.16 1.17 1.10 1.09 1.06 1.06 1.18 1.32 1.46 1.52 1.53 1.49 1.53 1.51 1.42
0.58 0.61 0.58 0.53 0.67 0.73 0.53 0.44 0.62 0.86 0.84 0.93 0.85 0.84 0.88 0.92 0.92 0.86 0.77 0.69 0.63 0.54 0.57 0.62 0.67 0.74 0.84 0.95 1.10 1.23 1.20 1.17 1.13 1.12 1.18 1.23 1.27 1.27 1.26 1.29 1.30 1.37 1.42 1.39
0.75 0.79 0.78 0.78 0.90 0.84 0.62 0.62 0.68 0.70 0.85 0.88 0.84 0.85 0.88 0.87 0.84 0.77 0.68 0.65 0.68 0.63 0.62 0.60 0.66 0.73 0.84 1.00 1.16 1.29 1.28 1.32 1.30 1.25 1.28 1.30 1.30 1.30 1.31 1.27 1.26 1.25 1.21 1.14
0.84 0.70 0.83 1.00 1.12 0.95 0.78 0.70 0.70 0.73 0.78 0.81 0.79 0.85 0.86 0.80 0.74 0.72 0.68 0.65 0.70 0.70 0.66 0.65 0.66 0.70 0.80 0.87 0.96 1.11 1.19 1.24 1.29 1.26 1.17 1.07 1.04 1.04 1.08 1.12 1.13 1.16 1.12 1.08
0.88 0.85 0.94 1.23 1.39 1.27 1.09 0.88 0.79 0.86 0.88 0.92 0.93 0.88 0.84 0.84 0.86 0.91 0.88 0.77 0.70 0.70 0.72 0.71 0.72 0.75 0.78 0.83 0.87 0.93 1.01 1.12 1.27 1.31 1.23 1.17 1.10 1.05 1.04 1.06 1.11 1.09 1.08 1.06
0.77 0.93 1.11 1.38 1.38 1.40 1.32 1.04 0.94 1.01 1.09 1.09 1.03 0.99 0.96 0.95 0.94 0.89 0.84 0.77 0.71 0.68 0.72 0.76 0.80 0.83 0.80 0.81 0.88 0.93 1.03 1.17 1.32 1.32 1.22 1.19 1.18 1.16 1.13 1.09 1.11 1.15 1.04 1.04

GEFSCGP_prec_meanprecacc_174.txt.gz
Total_Precipitation_Accumulation
0.00 0.00 0.01 0.01 0.01 0.02 0.03 0.06 0.14 0.22 0.17 0.25 0.32 0.43 0.58 0.75 0.98 1.02 1.10 1.21 1.43 1.73 2.13 2.80 3.48 4.06 4.72 5.45 5.99 5.85 5.21 4.68 4.07 3.52 2.93 2.75 2.46 2.20 1.94 1.73 1.53 1.49 1.41 1.21
0.01 0.03 0.03 0.02 0.02 0.03 0.04 0.07 0.13 0.18 0.14 0.14 0.26 0.52 0.67 0.76 0.93 0.89 0.91 0.94 1.13 1.48 2.09 2.87 3.49 3.69 3.69 3.94 4.18 3.69 3.47 3.42 3.00 2.66 2.53 2.36 2.12 1.87 1.65 1.53 1.47 1.24 1.18 1.12
0.02 0.04 0.03 0.02 0.03 0.04 0.07 0.09 0.09 0.15 0.16 0.22 0.36 0.69 0.90 0.83 0.82 0.71 0.70 0.91 1.38 1.77 2.21 2.72 2.89 2.90 2.79 2.75 2.73 2.49 2.41 2.67 2.57 2.49 2.38 2.30 2.19 2.06 1.79 1.48 1.41 1.17 1.01 0.99
0.01 0.03 0.03 0.04 0.04 0.04 0.07 0.06 0.04 0.04 0.12 0.34 0.50 0.91 1.07 0.99 0.92 0.65 0.69 1.08 1.58 1.90 2.17 2.16 1.77 1.66 1.80 1.87 1.96 2.18 2.25 2.33 2.22 2.23 2.01 1.80 1.62 1.46 1.34 1.28 1.26 1.25 1.09 0.99
0.03 0.03 0.03 0.04 0.04 0.03 0.04 0.04 0.03 0.05 0.15 0.39 0.65 1.06 1.25 1.03 0.84 0.60 0.57 0.66 1.04 1.25 1.23 1.03 0.89 0.97 1.20 1.44 1.66 2.02 2.10 2.10 1.98 1.91 1.88 1.87 1.75 1.68 1.53 1.46 1.50 1.47 1.43 1.25
0.04 0.04 0.04 0.03 0.03 0.03 0.03 0.04 0.10 0.20 0.37 0.82 0.86 0.95 1.18 0.99 0.78 0.60 0.41 0.45 0.70 0.74 0.59 0.61 0.70 0.89 1.12 1.29 1.39 1.58 1.74 1.91 1.96 1.97 1.99 1.91 1.84 1.85 1.67 1.51 1.42 1.39 1.39 1.30
0.09 0.08 0.06 0.04 0.03 0.04 0.03 0.05 0.25 0.60 0.89 1.01 0.72 0.87 1.16 0.78 0.52 0.40 0.28 0.26 0.29 0.34 0.43 0.60 0.66 0.86 0.97 1.08 1.10 1.19 1.31 1.51 1.63 1.72 1.83 1.85 1.84 1.84 1.65 1.52 1.39 1.34 1.23 1.14
0.14 0.14 0.08 0.04 0.05 0.05 0.04 0.03 0.10 0.21 0.33 0.52 0.68 1.07 1.15 0.75 0.40 0.24 0.19 0.19 0.18 0.23 0.29 0.34 0.38 0.48 0.62 0.79 0.98 1.12 1.16 1.17 1.20 1.26 1.45 1.62 1.63 1.64 1.57 1.57 1.36 1.27 1.19 1.15
0.05 0.04 0.04 0.04 0.05 0.03 0.03 0.03 0.04 0.05 0.08 0.31 0.73 1.01 0.92 0.58 0.40 0.28 0.24 0.24 0.21 0.21 0.28 0.25 0.25 0.31 0.41 0.46 0.61 0.83 0.91 0.92 0.94 1.01 1.15 1.25 1.30 1.40 1.49 1.44 1.29 1.14 1.15 1.17
0.02 0.02 0.03 0.03 0.03 0.04 0.04 0.03 0.03 0.05 0.10 0.23 0.56 1.03 1.17 0.80 0.55 0.39 0.32 0.25 0.21 0.22 0.23 0.26 0.27 0.27 0.29 0.32 0.45 0.62 0.76 0.79 0.82 0.87 0.93 0.93 1.06 1.16 1.28 1.29 1.24 1.11 1.06 1.14
0.02 0.01 0.02 0.03 0.04 0.06 0.05 0.04 0.05 0.06 0.07 0.15 0.41 0.66 0.65 0.68 0.53 0.34 0.31 0.26 0.21 0.22 0.25 0.30 0.25 0.29 0.26 0.25 0.33 0.45 0.62 0.71 0.67 0.71 0.78 0.87 0.96 1.12 1.19 1.16 1.18 1.13 1.10 1.13
0.02 0.01 0.02 0.04 0.06 0.06 0.07 0.07 0.07 0.08 0.08 0.11 0.20 0.34 0.38 0.40 0.43 0.47 0.39 0.33 0.33 0.34 0.27 0.28 0.23 0.26 0.20 0.22 0.28 0.37 0.45 0.53 0.57 0.64 0.74 0.81 0.87 1.00 1.12 1.09 1.13 1.21 1.18 1.16
0.02 0.01 0.03 0.10 0.15 0.14 0.10 0.09 0.08 0.08 0.08 0.08 0.19 0.33 0.33 0.29 0.32 0.38 0.36 0.40 0.42 0.35 0.32 0.26 0.25 0.22 0.18 0.19 0.23 0.30 0.40 0.51 0.56 0.60 0.73 0.81 0.81 0.89 1.03 1.10 1.12 1.16 1.20 1.23
0.02 0.02 0.02 0.08 0.16 0.20 0.19 0.14 0.10 0.07 0.06 0.06 0.11 0.22 0.22 0.32 0.40 0.37 0.39 0.45 0.40 0.26 0.25 0.26 0.23 0.21 0.25 0.25 0.29 0.38 0.49 0.56 0.63 0.60 0.69 0.78 0.83 0.95 1.08 1.13 1.14 1.16 1.15 1.20
0.02 0.02 0.02 0.02 0.06 0.12 0.17 0.16 0.11 0.06 0.05 0.06 0.07 0.13 0.20 0.35 0.46 0.47 0.46 0.47 0.41 0.30 0.28 0.28 0.27 0.28 0.30 0.34 0.38 0.46 0.58 0.60 0.66 0.79 0.88 0.95 0.98 1.06 1.18 1.26 1.21 1.24 1.24 1.24
0.04 0.04 0.03 0.03 0.05 0.08 0.11 0.14 0.10 0.06 0.06 0.05 0.07 0.14 0.25 0.42 0.47 0.49 0.44 0.41 0.38 0.37 0.32 0.30 0.32 0.36 0.36 0.39 0.46 0.52 0.60 0.68 0.84 1.14 1.25 1.25 1.29 1.34 1.35 1.36 1.31 1.37 1.45 1.58
0.11 0.09 0.07 0.05 0.07 0.08 0.13 0.12 0.10 0.09 0.08 0.08 0.12 0.20 0.28 0.39 0.53 0.60 0.52 0.40 0.38 0.36 0.37 0.38 0.40 0.47 0.47 0.50 0.53 0.56 0.61 0.70 0.88 1.11 1.25 1.35 1.38 1.40 1.46 1.47 1.48 1.48 1.55 1.63
0.19 0.19 0.15 0.10 0.10 0.17 0.15 0.14 0.14 0.13 0.13 0.16 0.24 0.34 0.36 0.38 0.45 0.49 0.41 0.40 0.43 0.43 0.47 0.51 0.52 0.58 0.59 0.61 0.62 0.69 0.81 0.93 1.04 1.15 1.27 1.43 1.48 1.52 1.55 1.54 1.47 1.44 1.46 1.46
0.24 0.27 0.24 0.21 0.20 0.18 0.17 0.20 0.21 0.20 0.25 0.28 0.39 0.49 0.53 0.51 0.51 0.60 0.52 0.50 0.50 0.54 0.56 0.60 0.65 0.69 0.76 0.82 0.83 0.87 1.02 1.15 1.21 1.27 1.42 1.53 1.61 1.71 1.64 1.53 1.49 1.39 1.37 1.28
0.29 0.32 0.38 0.32 0.34 0.34 0.26 0.30 0.29 0.31 0.51 0.48 0.53 0.64 0.72 0.72 0.88 0.94 0.71 0.65 0.59 0.56 0.60 0.63 0.74 0.81 0.87 0.99 1.03 1.05 1.11 1.15 1.20 1.24 1.34 1.47 1.55 1.68 1.73 1.64 1.58 1.50 1.48 1.38
0.41 0.44 0.41 0.41 0.43 0.39 0.37 0.35 0.36 0.63 0.86 0.78 0.74 0.73 0.82 0.92 0.86 0.81 0.68 0.66 0.63 0.56 0.57 0.61 0.69 0.82 0.89 0.97 1.07 1.18 1.20 1.12 1.12 1.09 1.10 1.20 1.35 1.49 1.56 1.57 1.53 1.57 1.55 1.46
0.58 0.62 0.58 0.53 0.67 0.76 0.54 0.44 0.63 0.88 0.85 0.93 0.85 0.84 0.89 0.92 0.92 0.86 0.77 0.70 0.63 0.55 0.57 0.63 0.68 0.75 0.86 0.97 1.13 1.27 1.25 1.21 1.17 1.18 1.24 1.27 1.30 1.30 1.28 1.32 1.34 1.41 1.46 1.44
0.76 0.80 0.80 0.79 0.93 0.86 0.62 0.63 0.69 0.71 0.86 0.88 0.84 0.85 0.88 0.87 0.85 0.78 0.69 0.67 0.71 0.65 0.63 0.62 0.68 0.75 0.86 1.03 1.19 1.35 1.34 1.39 1.37 1.33 1.36 1.35 1.34 1.33 1.34 1.31 1.29 1.29 1.25 1.18
0.86 0.71 0.85 1.03 1.16 0.98 0.81 0.72 0.71 0.74 0.79 0.81 0.79 0.85 0.86 0.81 0.74 0.72 0.69 0.66 0.72 0.73 0.69 0.68 0.69 0.74 0.83 0.90 1.00 1.17 1.25 1.31 1.37 1.33 1.25 1.14 1.09 1.09 1.13 1.18 1.18 1.21 1.17 1.13
0.91 0.87 0.96 1.27 1.46 1.33 1.13 0.91 0.82 0.88 0.90 0.94 0.93 0.89 0.85 0.85 0.86 0.91 0.89 0.78 0.71 0.72 0.75 0.74 0.74 0.77 0.81 0.86 0.90 0.98 1.07 1.17 1.33 1.38 1.30 1.23 1.18 1.13 1.11 1.13 1.18 1.16 1.13 1.11
0.79 0.98 1.17 1.45 1.45 1.50 1.39 1.07 0.96 1.03 1.11 1.11 1.04 1.00 0.97 0.96 0.95 0.90 0.86 0.79 0.72 0.69 0.73 0.78 0.83 0.86 0.83 0.84 0.91 0.97 1.07 1.21 1.37 1.38 1.29 1.28 1.27 1.23 1.20 1.16 1.18 1.21 1.09 1.08

GEFSCGP_prec_meanprecacc_180.txt.gz
Total_Precipitation_Accumulation
0.00 0.00 0.01 0.01 0.01 0.02 0.03 0.07 0.14 0.22 0.17 0.25 0.33 0.44 0.59 0.76 0.99 1.02 1.10 1.21 1.43 1.73 2.14 2.81 3.49 4.06 4.73 5.47 6.01 5.87 5.23 4.70 4.09 3.54 2.95 2.79 2.51 2.23 1.97 1.76 1.56 1.53 1.45 1.24
0.01 0.03 0.03 0.02 0.02 0.03 0.04 0.08 0.13 0.18 0.15 0.14 0.26 0.53 0.69 0.78 0.95 0.90 0.91 0.94 1.13 1.48 2.09 2.88 3.49 3.69 3.70 3.96 4.20 3.71 3.48 3.43 3.02 2.68 2.55 2.39 2.18 1.92 1.69 1.56 1.49 1.26 1.20 1.14
0.02 0.04 0.03 0.02 0.03 0.04 0.07 0.09 0.10 0.16 0.17 0.22 0.36 0.70 0.92 0.85 0.84 0.73 0.71 0.91 1.38 1.77 2.21 2.73 2.89 2.90 2.79 2.77 2.75 2.51 2.43 2.69 2.59 2.51 2.42 2.33 2.24 2.12 1.86 1.52 1.43 1.19 1.04 1.03
0.01 0.03 0.03 0.04 0.04 0.05 0.07 0.06 0.04 0.05 0.12 0.35 0.51 0.91 1.09 1.00 0.94 0.67 0.71 1.08 1.59 1.90 2.17 2.17 1.78 1.66 1.81 1.89 1.97 2.19 2.26 2.36 2.26 2.28 2.07 1.85 1.67 1.52 1.40 1.34 1.32 1.30 1.14 1.03
0.03 0.03 0.03 0.04 0.04 0.04 0.04 0.04 0.03 0.06 0.15 0.39 0.66 1.08 1.26 1.06 0.87 0.62 0.59 0.67 1.04 1.25 1.23 1.03 0.89 0.97 1.20 1.45 1.67 2.03 2.12 2.12 2.01 1.95 1.95 1.95 1.81 1.72 1.58 1.52 1.56 1.53 1.50 1.30
0.04 0.04 0.04 0.03 0.03 0.03 0.03 0.04 0.10 0.20 0.38 0.82 0.86 0.95 1.19 1.01 0.80 0.61 0.42 0.45 0.70 0.74 0.60 0.62 0.70 0.89 1.13 1.29 1.39 1.58 1.74 1.92 1.97 1.99 2.04 1.97 1.90 1.90 1.70 1.54 1.44 1.42 1.43 1.36
0.09 0.08 0.06 0.04 0.03 0.04 0.03 0.05 0.25 0.60 0.89 1.01 0.73 0.87 1.17 0.78 0.52 0.41 0.29 0.26 0.30 0.34 0.43 0.60 0.66 0.86 0.97 1.09 1.11 1.20 1.32 1.52 1.64 1.73 1.86 1.89 1.89 1.89 1.68 1.54 1.41 1.36 1.26 1.18
0.14 0.14 0.08 0.04 0.05 0.05 0.04 0.03 0.10 0.21 0.33 0.53 0.69 1.07 1.15 0.75 0.41 0.24 0.19 0.19 0.19 0.23 0.30 0.35 0.38 0.48 0.62 0.79 0.98 1.12 1.16 1.18 1.20 1.27 1.46 1.64 1.66 1.67 1.60 1.61 1.39 1.29 1.21 1.20
0.05 0.04 0.04 0.04 0.05 0.03 0.03 0.03 0.04 0.05 0.08 0.31 0.73 1.01 0.92 0.58 0.40 0.29 0.24 0.24 0.22 0.22 0.29 0.26 0.25 0.32 0.41 0.46 0.62 0.83 0.92 0.92 0.94 1.01 1.16 1.27 1.32 1.42 1.52 1.48 1.32 1.17 1.19 1.21
0.02 0.02 0.03 0.03 0.03 0.04 0.04 0.03 0.03 0.05 0.10 0.23 0.57 1.04 1.18 0.81 0.56 0.40 0.33 0.26 0.22 0.24 0.24 0.26 0.27 0.27 0.30 0.32 0.45 0.62 0.76 0.80 0.83 0.88 0.94 0.94 1.07 1.18 1.30 1.33 1.29 1.16 1.12 1.18
0.02 0.01 0.02 0.03 0.04 0.06 0.05 0.04 0.05 0.06 0.07 0.15 0.42 0.67 0.67 0.69 0.56 0.36 0.31 0.28 0.24 0.25 0.26 0.30 0.26 0.30 0.26 0.25 0.33 0.46 0.63 0.72 0.69 0.72 0.79 0.88 0.98 1.15 1.23 1.23 1.26 1.21 1.17 1.19
0.02 0.01 0.02 0.04 0.06 0.06 0.07 0.07 0.07 0.08 0.08 0.11 0.20 0.34 0.38 0.41 0.44 0.48 0.40 0.34 0.34 0.37 0.30 0.29 0.25 0.28 0.22 0.23 0.30 0.38 0.46 0.55 0.60 0.67 0.77 0.86 0.94 1.05 1.17 1.15 1.20 1.26 1.23 1.20
0.02 0.01 0.03 0.10 0.15 0.14 0.10 0.09 0.08 0.08 0.08 0.08 0.19 0.34 0.34 0.29 0.32 0.38 0.37 0.41 0.43 0.36 0.34 0.28 0.31 0.32 0.25 0.25 0.29 0.36 0.46 0.57 0.65 0.72 0.84 0.87 0.84 0.91 1.06 1.13 1.16 1.21 1.25 1.27
0.02 0.02 0.02 0.08 0.16 0.20 0.19 0.14 0.10 0.07 0.06 0.06 0.11 0.22 0.22 0.32 0.40 0.37 0.40 0.47 0.43 0.28 0.27 0.28 0.29 0.31 0.34 0.34 0.37 0.44 0.56 0.62 0.69 0.65 0.71 0.79 0.83 0.97 1.11 1.16 1.17 1.19 1.19 1.24
0.02 0.02 0.02 0.02 0.06 0.12 0.17 0.16 0.11 0.06 0.05 0.06 0.07 0.13 0.21 0.36 0.46 0.48 0.47 0.49 0.43 0.31 0.30 0.31 0.33 0.32 0.34 0.39 0.42 0.48 0.60 0.62 0.67 0.80 0.88 0.96 0.98 1.06 1.20 1.28 1.24 1.26 1.28 1.28
0.04 0.04 0.03 0.03 0.05 0.08 0.11 0.14 0.10 0.06 0.06 0.05 0.07 0.14 0.26 0.43 0.47 0.50 0.47 0.42 0.39 0.38 0.34 0.38 0.41 0.41 0.39 0.42 0.48 0.54 0.61 0.69 0.85 1.14 1.25 1.25 1.30 1.34 1.36 1.37 1.35 1.40 1.47 1.61
0.11 0.09 0.07 0.05 0.07 0.08 0.13 0.12 0.10 0.09 0.08 0.08 0.12 0.21 0.29 0.41 0.54 0.61 0.53 0.41 0.40 0.38 0.40 0.45 0.55 0.59 0.55 0.54 0.57 0.60 0.64 0.71 0.89 1.12 1.25 1.35 1.38 1.41 1.47 1.48 1.51 1.53 1.59 1.67
0.19 0.19 0.15 0.10 0.10 0.17 0.15 0.14 0.14 0.13 0.13 0.16 0.25 0.35 0.40 0.41 0.47 0.50 0.42 0.41 0.44 0.44 0.51 0.58 0.59 0.68 0.71 0.72 0.72 0.79 0.87 0.97 1.07 1.17 1.29 1.44 1.50 1.54 1.57 1.56 1.49 1.47 1.51 1.51
0.24 0.27 0.24 0.21 0.20 0.18 0.17 0.20 0.21 0.20 0.26 0.29 0.40 0.52 0.57 0.55 0.53 0.61 0.54 0.51 0.52 0.56 0.60 0.69 0.77 0.79 0.85 0.95 0.99 1.00 1.10 1.22 1.27 1.32 1.46 1.57 1.66 1.74 1.67 1.56 1.52 1.45 1.44 1.35
0.29 0.33 0.38 0.33 0.34 0.34 0.26 0.30 0.30 0.31 0.53 0.52 0.57 0.67 0.73 0.73 0.89 0.96 0.72 0.68 0.63 0.61 0.64 0.68 0.83 0.98 0.98 1.07 1.16 1.21 1.23 1.25 1.30 1.32 1.40 1.52 1.61 1.74 1.78 1.68 1.61 1.55 1.56 1.50
0.42 0.44 0.41 0.41 0.43 0.39 0.37 0.35 0.36 0.65 0.89 0.81 0.77 0.76 0.84 0.94 0.88 0.83 0.70 0.70 0.70 0.64 0.64 0.66 0.73 0.89 0.96 1.03 1.12 1.24 1.27 1.22 1.22 1.20 1.20 1.31 1.46 1.60 1.66 1.66 1.61 1.63 1.60 1.52
0.60 0.63 0.59 0.54 0.68 0.76 0.55 0.45 0.65 0.91 0.91 0.98 0.89 0.87 0.91 0.95 0.96 0.91 0.84 0.78 0.72 0.62 0.63 0.67 0.71 0.78 0.90 1.05 1.24 1.37 1.36 1.31 1.29 1.30 1.37 1.41 1.44 1.43 1.40 1.42 1.42 1.48 1.53 1.49
0.78 0.82 0.82 0.82 0.95 0.88 0.64 0.65 0.73 0.75 0.91 0.95 0.90 0.91 0.94 0.92 0.90 0.85 0.76 0.73 0.77 0.70 0.68 0.66 0.73 0.80 0.94 1.13 1.33 1.53 1.53 1.51 1.49 1.48 1.48 1.48 1.48 1.46 1.44 1.40 1.38 1.36 1.32 1.25
0.87 0.74 0.88 1.08 1.21 1.03 0.86 0.77 0.78 0.85 0.92 0.97 0.93 0.98 0.97 0.90 0.83 0.80 0.77 0.73 0.78 0.78 0.72 0.71 0.73 0.79 0.90 0.99 1.12 1.31 1.40 1.42 1.49 1.45 1.36 1.27 1.24 1.21 1.23 1.27 1.29 1.30 1.26 1.22
0.95 0.92 1.04 1.37 1.56 1.41 1.22 1.02 0.91 1.01 1.15 1.21 1.16 1.08 0.99 0.99 1.01 1.03 0.98 0.86 0.78 0.77 0.79 0.77 0.78 0.81 0.84 0.90 0.95 1.05 1.17 1.27 1.41 1.47 1.41 1.36 1.30 1.24 1.23 1.28 1.35 1.28 1.22 1.20
0.85 1.05 1.26 1.57 1.58 1.62 1.52 1.22 1.11 1.18 1.30 1.34 1.23 1.20 1.16 1.13 1.10 1.01 0.92 0.83 0.77 0.74 0.77 0.82 0.87 0.89 0.86 0.88 0.95 1.03 1.15 1.31 1.47 1.48 1.40 1.39 1.39 1.36 1.32 1.29 1.30 1.33 1.17 1.13

GEFSCGP_prec_meanprecacc_186.txt.gz
Total_Precipitation_Accumulation
0.00 0.00 0.01 0.01 0.01 0.02 0.03 0.07 0.14 0.22 0.17 0.25 0.33 0.44 0.59 0.76 0.99 1.02 1.10 1.21 1.43 1.73 2.14 2.82 3.51 4.08 4.74 5.50 6.07 5.90 5.25 4.73 4.11 3.55 2.98 2.83 2.56 2.29 2.03 1.81 1.60 1.56 1.48 1.27
0.01 0.03 0.03 0.02 0.02 0.03 0.04 0.08 0.13 0.18 0.15 0.15 0.26 0.53 0.69 0.78 0.95 0.91 0.91 0.94 1.13 1.48 2.09 2.88 3.50 3.70 3.71 3.98 4.23 3.73 3.50 3.46 3.04 2.70 2.58 2.43 2.22 1.99 1.76 1.62 1.53 1.28 1.24 1.17
0.02 0.04 0.03 0.03 0.03 0.04 0.07 0.09 0.10 0.16 0.17 0.22 0.36 0.70 0.92 0.85 0.84 0.73 0.71 0.91 1.38 1.77 2.21 2.73 2.90 2.91 2.80 2.78 2.77 2.53 2.46 2.73 2.63 2.55 2.46 2.36 2.28 2.18 1.91 1.58 1.48 1.23 1.08 1.06
0.01 0.03 0.03 0.04 0.04 0.05 0.07 0.06 0.04 0.05 0.12 0.35 0.51 0.91 1.09 1.00 0.94 0.67 0.71 1.08 1.59 1.91 2.17 2.17 1.78 1.66 1.81 1.90 1.99 2.23 2.30 2.40 2.30 2.33 2.11 1.87 1.70 1.56 1.45 1.39 1.37 1.35 1.19 1.08
0.03 0.03 0.03 0.04 0.04 0.04 0.04 0.04 0.03 0.06 0.15 0.39 0.66 1.08 1.26 1.06 0.87 0.62 0.59 0.67 1.04 1.26 1.23 1.03 0.89 0.97 1.21 1.45 1.69 2.06 2.14 2.15 2.04 1.98 1.98 1.98 1.85 1.76 1.62 1.56 1.60 1.59 1.56 1.38
0.04 0.04 0.04 0.03 0.03 0.03 0.03 0.04 0.10 0.20 0.38 0.82 0.86 0.95 1.19 1.01 0.80 0.61 0.42 0.45 0.70 0.74 0.60 0.62 0.70 0.89 1.13 1.30 1.40 1.60 1.76 1.94 1.98 2.00 2.06 2.00 1.93 1.93 1.74 1.57 1.47 1.46 1.49 1.44
0.09 0.08 0.06 0.04 0.03 0.04 0.03 0.05 0.26 0.60 0.89 1.01 0.73 0.87 1.17 0.78 0.52 0.41 0.29 0.26 0.30 0.34 0.43 0.60 0.66 0.86 0.98 1.09 1.11 1.20 1.32 1.52 1.65 1.73 1.86 1.91 1.91 1.92 1.71 1.58 1.44 1.39 1.30 1.26
0.14 0.14 0.08 0.04 0.05 0.05 0.04 0.04 0.10 0.21 0.33 0.53 0.69 1.07 1.15 0.75 0.41 0.25 0.20 0.19 0.19 0.23 0.30 0.35 0.39 0.48 0.62 0.79 0.98 1.12 1.17 1.18 1.21 1.27 1.47 1.65 1.67 1.69 1.62 1.64 1.43 1.32 1.25 1.26
0.05 0.04 0.04 0.04 0.05 0.03 0.03 0.03 0.04 0.05 0.08 0.31 0.73 1.01 0.92 0.58 0.40 0.29 0.24 0.25 0.22 0.22 0.30 0.26 0.25 0.32 0.41 0.47 0.62 0.83 0.92 0.93 0.94 1.01 1.16 1.27 1.32 1.43 1.54 1.51 1.35 1.20 1.23 1.25
0.02 0.02 0.03 0.03 0.03 0.04 0.04 0.03 0.03 0.05 0.10 0.23 0.57 1.04 1.18 0.81 0.56 0.40 0.33 0.26 0.23 0.24 0.25 0.27 0.27 0.28 0.30 0.32 0.45 0.62 0.77 0.80 0.83 0.88 0.94 0.94 1.07 1.18 1.32 1.34 1.30 1.18 1.15 1.21
0.02 0.01 0.02 0.03 0.04 0.06 0.05 0.04 0.05 0.06 0.07 0.15 0.42 0.67 0.67 0.69 0.56 0.36 0.31 0.28 0.24 0.25 0.26 0.31 0.27 0.31 0.27 0.26 0.34 0.46 0.64 0.72 0.69 0.73 0.79 0.88 0.98 1.15 1.23 1.23 1.27 1.23 1.20 1.22
0.02 0.01 0.02 0.04 0.06 0.06 0.07 0.07 0.07 0.08 0.08 0.11 0.20 0.34 0.38 0.41 0.44 0.48 0.40 0.34 0.35 0.37 0.30 0.30 0.26 0.30 0.25 0.26 0.31 0.39 0.47 0.56 0.60 0.68 0.77 0.86 0.94 1.06 1.18 1.16 1.21 1.29 1.25 1.23
0.02 0.01 0.03 0.10 0.15 0.14 0.10 0.09 0.08 0.08 0.08 0.08 0.19 0.34 0.34 0.29 0.33 0.38 0.38 0.41 0.43 0.37 0.35 0.29 0.33 0.34 0.27 0.28 0.31 0.37 0.47 0.58 0.66 0.73 0.84 0.87 0.84 0.92 1.06 1.13 1.17 1.23 1.27 1.30
0.02 0.02 0.02 0.08 0.16 0.20 0.19 0.14 0.10 0.07 0.06 0.06 0.11 0.22 0.23 0.33 0.41 0.38 0.40 0.47 0.43 0.30 0.29 0.30 0.31 0.32 0.36 0.36 0.39 0.47 0.58 0.64 0.70 0.66 0.72 0.79 0.84 0.98 1.12 1.16 1.18 1.21 1.22 1.27
0.02 0.02 0.02 0.02 0.06 0.12 0.17 0.16 0.11 0.06 0.05 0.06 0.07 0.13 0.21 0.36 0.46 0.48 0.48 0.49 0.43 0.32 0.31 0.32 0.34 0.34 0.37 0.43 0.47 0.53 0.65 0.65 0.69 0.81 0.89 0.97 1.00 1.07 1.21 1.29 1.25 1.29 1.31 1.32
0.04 0.04 0.03 0.03 0.05 0.08 0.11 0.14 0.10 0.06 0.06 0.05 0.07 0.14 0.26 0.43 0.48 0.51 0.47 0.43 0.40 0.40 0.36 0.40 0.44 0.44 0.43 0.46 0.55 0.63 0.69 0.73 0.87 1.17 1.27 1.28 1.32 1.36 1.38 1.39 1.37 1.43 1.50 1.66
0.11 0.09 0.07 0.05 0.07 0.08 0.13 0.12 0.10 0.09 0.08 0.08 0.12 0.21 0.29 0.41 0.55 0.62 0.54 0.42 0.41 0.39 0.42 0.48 0.59 0.63 0.58 0.58 0.63 0.72 0.76 0.80 0.95 1.17 1.30 1.39 1.42 1.44 1.50 1.51 1.53 1.56 1.63 1.71
0.19 0.19 0.15 0.10 0.10 0.17 0.16 0.14 0.15 0.13 0.13 0.16 0.25 0.36 0.40 0.42 0.48 0.51 0.43 0.42 0.45 0.46 0.53 0.61 0.62 0.69 0.73 0.76 0.79 0.89 1.01 1.12 1.19 1.28 1.39 1.53 1.57 1.61 1.63 1.61 1.54 1.52 1.57 1.58
0.24 0.27 0.24 0.21 0.20 0.18 0.17 0.20 0.22 0.21 0.26 0.29 0.41 0.52 0.58 0.56 0.54 0.63 0.56 0.53 0.53 0.58 0.62 0.71 0.80 0.81 0.87 0.99 1.05 1.07 1.22 1.36 1.43 1.48 1.62 1.74 1.83 1.90 1.81 1.68 1.65 1.61 1.59 1.48
0.29 0.33 0.38 0.33 0.34 0.34 0.27 0.31 0.30 0.32 0.54 0.53 0.58 0.68 0.74 0.75 0.91 0.97 0.74 0.69 0.64 0.63 0.66 0.71 0.86 1.02 1.01 1.11 1.21 1.26 1.28 1.32 1.39 1.44 1.54 1.68 1.79 1.95 2.01 1.92 1.87 1.77 1.71 1.61
0.42 0.45 0.42 0.41 0.43 0.39 0.37 0.35 0.37 0.66 0.90 0.83 0.79 0.79 0.87 0.97 0.92 0.86 0.73 0.73 0.72 0.66 0.67 0.70 0.78 0.94 1.00 1.07 1.16 1.28 1.32 1.26 1.28 1.28 1.29 1.42 1.60 1.79 1.88 1.92 1.85 1.82 1.74 1.63
0.61 0.65 0.59 0.54 0.68 0.77 0.55 0.45 0.65 0.91 0.92 1.00 0.92 0.91 0.95 0.99 1.00 0.94 0.86 0.81 0.75 0.66 0.66 0.70 0.75 0.82 0.94 1.09 1.27 1.41 1.42 1.38 1.36 1.39 1.48 1.54 1.59 1.61 1.59 1.62 1.62 1.67 1.68 1.63
0.79 0.84 0.82 0.82 0.96 0.89 0.65 0.66 0.74 0.76 0.92 0.98 0.94 0.95 0.98 0.96 0.95 0.89 0.80 0.77 0.81 0.74 0.72 0.70 0.77 0.85 0.99 1.17 1.38 1.58 1.60 1.60 1.60 1.61 1.61 1.59 1.58 1.57 1.57 1.54 1.52 1.50 1.44 1.34
0.88 0.75 0.90 1.09 1.22 1.04 0.87 0.78 0.79 0.85 0.93 0.98 0.95 1.01 1.02 0.94 0.87 0.84 0.81 0.78 0.84 0.84 0.78 0.77 0.78 0.83 0.94 1.04 1.17 1.37 1.45 1.49 1.57 1.52 1.44 1.36 1.32 1.33 1.36 1.39 1.40 1.40 1.35 1.29
0.96 0.94 1.06 1.39 1.57 1.43 1.24 1.03 0.93 1.02 1.16 1.22 1.19 1.12 1.04 1.05 1.07 1.11 1.06 0.94 0.86 0.86 0.88 0.85 0.85 0.88 0.91 0.96 1.01 1.10 1.20 1.30 1.44 1.50 1.45 1.41 1.38 1.34 1.35 1.40 1.47 1.39 1.33 1.29
0.86 1.07 1.28 1.59 1.60 1.64 1.53 1.24 1.13 1.20 1.33 1.36 1.27 1.27 1.25 1.22 1.20 1.10 1.04 0.96 0.88 0.84 0.87 0.91 0.94 0.96 0.95 0.98 1.04 1.10 1.20 1.36 1.52 1.52 1.44 1.44 1.46 1.47 1.46 1.43 1.45 1.51 1.37 1.30

GEFSCGP_prec_meanprecacc_192.txt.gz
Total_Precipitation_Accumulation
0.00 0.00 0.01 0.01 0.01 0.02 0.03 0.07 0.14 0.22 0.17 0.25 0.33 0.44 0.59 0.76 0.99 1.02 1.10 1.21 1.43 1.73 2.14 2.82 3.51 4.08 4.74 5.50 6.08 5.92 5.27 4.75 4.13 3.57 3.01 2.86 2.62 2.35 2.09 1.88 1.65 1.63 1.55 1.35
0.01 0.03 0.03 0.02 0.02 0.03 0.04 0.08 0.13 0.18 0.15 0.15 0.26 0.53 0.69 0.78 0.95 0.91 0.91 0.94 1.13 1.48 2.09 2.88 3.50 3.70 3.71 3.99 4.24 3.74 3.52 3.49 3.06 2.72 2.62 2.46 2.25 2.03 1.81 1.68 1.59 1.33 1.29 1.22
0.02 0.04 0.03 0.03 0.03 0.04 0.07 0.09 0.10 0.16 0.17 0.22 0.36 0.70 0.92 0.85 0.84 0.73 0.71 0.91 1.38 1.77 2.21 2.73 2.90 2.91 2.80 2.79 2.77 2.55 2.47 2.75 2.66 2.59 2.49 2.39 2.32 2.23 1.96 1.63 1.53 1.27 1.13 1.10
0.01 0.03 0.03 0.04 0.05 0.05 0.07 0.06 0.04 0.05 0.12 0.35 0.51 0.91 1.09 1.00 0.94 0.67 0.71 1.08 1.59 1.91 2.17 2.17 1.78 1.66 1.81 1.90 1.99 2.24 2.30 2.41 2.32 2.35 2.13 1.90 1.75 1.62 1.52 1.45 1.43 1.42 1.24 1.13
0.03 0.03 0.03 0.04 0.04 0.04 0.04 0.04 0.03 0.06 0.15 0.39 0.66 1.08 1.26 1.06 0.87 0.62 0.59 0.67 1.04 1.26 1.23 1.03 0.89 0.97 1.21 1.46 1.70 2.07 2.15 2.16 2.05 2.00 2.00 2.01 1.88 1.82 1.68 1.61 1.67 1.66 1.63 1.43
0.04 0.04 0.04 0.03 0.03 0.03 0.03 0.04 0.10 0.20 0.38 0.82 0.86 0.95 1.19 1.01 0.80 0.61 0.42 0.45 0.70 0.74 0.60 0.62 0.70 0.89 1.13 1.30 1.41 1.61 1.78 1.95 1.99 2.01 2.07 2.02 1.96 1.98 1.79 1.62 1.53 1.52 1.54 1.50
0.09 0.08 0.06 0.04 0.03 0.04 0.03 0.05 0.26 0.60 0.89 1.01 0.73 0.87 1.17 0.78 0.52 0.41 0.29 0.26 0.30 0.34 0.43 0.60 0.66 0.86 0.98 1.09 1.11 1.21 1.33 1.54 1.66 1.74 1.87 1.92 1.94 1.95 1.76 1.63 1.49 1.45 1.37 1.33
0.15 0.14 0.08 0.04 0.05 0.05 0.04 0.04 0.10 0.21 0.33 0.53 0.69 1.07 1.15 0.75 0.41 0.25 0.20 0.19 0.19 0.23 0.30 0.35 0.39 0.48 0.62 0.79 0.98 1.13 1.17 1.19 1.22 1.28 1.48 1.66 1.69 1.70 1.64 1.67 1.46 1.36 1.30 1.31
0.05 0.04 0.04 0.04 0.05 0.03 0.04 0.03 0.04 0.05 0.08 0.31 0.73 1.01 0.92 0.58 0.40 0.29 0.24 0.25 0.22 0.22 0.30 0.26 0.25 0.32 0.41 0.47 0.62 0.84 0.92 0.93 0.96 1.03 1.18 1.28 1.33 1.45 1.55 1.52 1.37 1.22 1.26 1.29
0.02 0.02 0.03 0.03 0.03 0.04 0.04 0.03 0.03 0.05 0.10 0.23 0.57 1.04 1.18 0.81 0.56 0.40 0.33 0.26 0.23 0.24 0.25 0.27 0.27 0.28 0.30 0.32 0.45 0.62 0.77 0.81 0.84 0.89 0.96 0.95 1.09 1.20 1.33 1.36 1.32 1.20 1.17 1.25
0.02 0.02 0.02 0.03 0.04 0.06 0.05 0.04 0.05 0.06 0.07 0.15 0.42 0.67 0.67 0.69 0.56 0.36 0.31 0.28 0.24 0.25 0.26 0.31 0.27 0.31 0.27 0.27 0.34 0.46 0.64 0.73 0.69 0.73 0.80 0.90 0.99 1.16 1.24 1.24 1.29 1.25 1.23 1.25
0.02 0.01 0.02 0.04 0.06 0.06 0.07 0.07 0.07 0.08 0.08 0.11 0.20 0.34 0.38 0.41 0.44 0.48 0.40 0.34 0.35 0.37 0.31 0.30 0.27 0.30 0.25 0.26 0.32 0.40 0.47 0.56 0.61 0.69 0.77 0.87 0.96 1.06 1.18 1.16 1.22 1.31 1.28 1.26
0.02 0.01 0.03 0.10 0.15 0.14 0.10 0.09 0.08 0.08 0.08 0.08 0.19 0.34 0.34 0.29 0.33 0.38 0.38 0.41 0.43 0.37 0.35 0.30 0.33 0.34 0.28 0.29 0.34 0.39 0.48 0.59 0.67 0.75 0.85 0.88 0.85 0.93 1.07 1.14 1.17 1.24 1.30 1.33
0.02 0.02 0.03 0.08 0.16 0.20 0.19 0.14 0.10 0.07 0.06 0.06 0.11 0.22 0.23 0.33 0.41 0.38 0.40 0.47 0.43 0.30 0.30 0.30 0.31 0.33 0.38 0.40 0.44 0.49 0.61 0.67 0.73 0.68 0.73 0.80 0.85 0.99 1.13 1.17 1.19 1.23 1.25 1.30
0.02 0.02 0.02 0.02 0.06 0.12 0.17 0.16 0.11 0.06 0.05 0.06 0.07 0.13 0.21 0.36 0.46 0.48 0.48 0.49 0.43 0.33 0.31 0.33 0.35 0.36 0.38 0.45 0.48 0.54 0.66 0.67 0.70 0.82 0.90 0.98 1.01 1.09 1.22 1.31 1.28 1.32 1.34 1.35
0.04 0.04 0.03 0.03 0.05 0.08 0.11 0.14 0.10 0.06 0.06 0.05 0.07 0.14 0.26 0.43 0.48 0.51 0.47 0.43 0.40 0.40 0.36 0.41 0.44 0.45 0.44 0.48 0.55 0.63 0.70 0.74 0.88 1.17 1.28 1.29 1.33 1.38 1.40 1.42 1.40 1.46 1.53 1.70
0.11 0.09 0.07 0.05 0.07 0.08 0.13 0.12 0.10 0.09 0.08 0.08 0.12 0.21 0.29 0.41 0.55 0.62 0.55 0.43 0.42 0.40 0.43 0.48 0.59 0.64 0.59 0.58 0.64 0.73 0.77 0.82 0.96 1.18 1.31 1.40 1.43 1.46 1.53 1.55 1.57 1.60 1.67 1.75
0.19 0.19 0.15 0.10 0.10 0.17 0.16 0.14 0.15 0.13 0.13 0.16 0.25 0.36 0.40 0.42 0.48 0.52 0.44 0.43 0.46 0.47 0.54 0.62 0.62 0.70 0.74 0.77 0.80 0.91 1.03 1.14 1.21 1.30 1.40 1.54 1.59 1.64 1.67 1.66 1.60 1.59 1.64 1.64
0.24 0.27 0.24 0.21 0.20 0.18 0.17 0.20 0.22 0.21 0.26 0.29 0.41 0.52 0.58 0.56 0.54 0.63 0.56 0.53 0.54 0.59 0.63 0.72 0.81 0.82 0.88 1.00 1.07 1.10 1.25 1.38 1.45 1.50 1.66 1.79 1.88 1.94 1.86 1.76 1.76 1.71 1.67 1.53
0.29 0.33 0.38 0.33 0.34 0.34 0.27 0.31 0.30 0.32 0.54 0.53 0.58 0.68 0.74 0.75 0.92 0.98 0.75 0.70 0.65 0.63 0.67 0.72 0.87 1.03 1.02 1.13 1.24 1.28 1.31 1.33 1.40 1.46 1.57 1.73 1.83 1.99 2.07 2.02 1.98 1.87 1.79 1.68
0.42 0.45 0.42 0.41 0.43 0.39 0.37 0.35 0.37 0.66 0.90 0.83 0.80 0.80 0.88 1.01 0.95 0.88 0.75 0.74 0.73 0.67 0.68 0.70 0.78 0.94 1.01 1.07 1.17 1.29 1.33 1.28 1.30 1.30 1.31 1.44 1.64 1.85 1.99 2.06 2.00 1.97 1.89 1.78
0.61 0.65 0.60 0.54 0.68 0.77 0.55 0.45 0.65 0.91 0.92 1.00 0.93 0.91 0.96 1.00 1.01 0.95 0.88 0.82 0.77 0.67 0.67 0.71 0.75 0.82 0.94 1.10 1.29 1.43 1.44 1.40 1.38 1.42 1.52 1.60 1.67 1.70 1.71 1.76 1.79 1.84 1.83 1.75
0.79 0.84 0.82 0.82 0.96 0.89 0.65 0.66 0.74 0.76 0.92 0.98 0.94 0.96 0.99 0.97 0.96 0.90 0.82 0.79 0.83 0.75 0.73 0.71 0.78 0.86 0.99 1.19 1.41 1.62 1.64 1.65 1.66 1.67 1.69 1.68 1.72 1.73 1.73 1.66 1.62 1.59 1.52 1.40
0.88 0.75 0.90 1.09 1.22 1.04 0.87 0.78 0.79 0.85 0.93 0.98 0.96 1.02 1.02 0.95 0.88 0.85 0.82 0.80 0.87 0.87 0.80 0.78 0.79 0.84 0.95 1.05 1.19 1.41 1.51 1.56 1.64 1.60 1.51 1.44 1.41 1.42 1.45 1.47 1.45 1.45 1.41 1.34
0.96 0.94 1.06 1.39 1.58 1.43 1.24 1.04 0.93 1.02 1.16 1.23 1.20 1.13 1.05 1.06 1.07 1.12 1.07 0.95 0.88 0.88 0.90 0.87 0.87 0.90 0.93 0.97 1.02 1.12 1.24 1.35 1.51 1.56 1.49 1.46 1.43 1.40 1.42 1.46 1.53 1.45 1.38 1.34
0.87 1.07 1.28 1.60 1.61 1.65 1.54 1.24 1.13 1.20 1.33 1.37 1.29 1.30 1.26 1.23 1.21 1.10 1.04 0.96 0.89 0.86 0.89 0.95 0.99 1.02 1.00 1.02 1.08 1.15 1.26 1.43 1.59 1.58 1.49 1.48 1.51 1.53 1.53 1.50 1.52 1.57 1.43 1.39

GEFSCGP_prec_meanprecacc_198.txt.gz
Total_Precipitation_Accumulation
0.00 0.00 0.01 0.01 0.01 0.02 0.04 0.07 0.15 0.23 0.19 0.26 0.34 0.45 0.60 0.76 0.99 1.02 1.10 1.21 1.43 1.73 2.14 2.82 3.51 4.08 4.74 5.50 6.08 5.93 5.30 4.79 4.18 3.62 3.06 2.91 2.68 2.41 2.15 1.92 1.68 1.65 1.58 1.38
0.01 0.03 0.03 0.02 0.02 0.03 0.04 0.08 0.13 0.19 0.16 0.16 0.28 0.55 0.70 0.79 0.95 0.91 0.91 0.94 1.13 1.48 2.09 2.88 3.50 3.70 3.71 3.99 4.25 3.75 3.54 3.51 3.09 2.76 2.67 2.51 2.31 2.08 1.87 1.73 1.65 1.37 1.33 1.26
0.02 0.04 0.03 0.03 0.03 0.04 0.07 0.09 0.10 0.16 0.17 0.23 0.37 0.71 0.93 0.86 0.85 0.73 0.71 0.91 1.38 1.77 2.21 2.73 2.90 2.91 2.80 2.79 2.77 2.55 2.48 2.77 2.68 2.62 2.53 2.43 2.38 2.29 2.03 1.69 1.61 1.32 1.16 1.13
0.01 0.03 0.03 0.04 0.05 0.05 0.07 0.06 0.04 0.05 0.12 0.35 0.52 0.93 1.10 1.01 0.95 0.68 0.72 1.09 1.59 1.91 2.17 2.17 1.78 1.66 1.81 1.90 1.99 2.24 2.31 2.42 2.33 2.37 2.16 1.95 1.81 1.69 1.59 1.51 1.52 1.49 1.29 1.16
0.03 0.03 0.03 0.04 0.04 0.04 0.04 0.04 0.03 0.06 0.15 0.39 0.66 1.08 1.27 1.07 0.88 0.63 0.60 0.68 1.05 1.26 1.23 1.03 0.89 0.97 1.21 1.46 1.70 2.07 2.15 2.18 2.07 2.02 2.02 2.05 1.93 1.89 1.75 1.67 1.77 1.74 1.69 1.47
0.04 0.04 0.04 0.03 0.03 0.03 0.03 0.04 0.10 0.20 0.38 0.83 0.88 0.96 1.19 1.02 0.81 0.64 0.48 0.47 0.71 0.75 0.60 0.62 0.70 0.89 1.13 1.30 1.41 1.62 1.79 1.98 2.02 2.03 2.09 2.04 2.00 2.04 1.86 1.69 1.59 1.57 1.60 1.54
0.09 0.08 0.06 0.04 0.03 0.04 0.03 0.05 0.26 0.60 0.90 1.02 0.75 0.88 1.17 0.78 0.53 0.43 0.32 0.28 0.31 0.35 0.44 0.60 0.66 0.86 0.98 1.09 1.11 1.21 1.34 1.55 1.68 1.77 1.89 1.94 1.97 2.00 1.81 1.68 1.54 1.50 1.41 1.37
0.15 0.14 0.08 0.04 0.05 0.05 0.04 0.04 0.10 0.22 0.34 0.54 0.70 1.08 1.16 0.75 0.41 0.25 0.20 0.21 0.20 0.24 0.30 0.35 0.39 0.48 0.62 0.79 0.98 1.13 1.18 1.21 1.24 1.30 1.49 1.68 1.72 1.73 1.66 1.71 1.50 1.41 1.33 1.34
0.05 0.04 0.04 0.04 0.05 0.03 0.04 0.03 0.04 0.05 0.08 0.31 0.74 1.02 0.93 0.59 0.40 0.29 0.24 0.25 0.22 0.23 0.30 0.26 0.25 0.32 0.41 0.47 0.62 0.84 0.93 0.95 0.97 1.05 1.20 1.30 1.36 1.47 1.59 1.56 1.39 1.24 1.28 1.31
0.02 0.02 0.03 0.03 0.03 0.04 0.04 0.03 0.03 0.05 0.10 0.23 0.57 1.05 1.20 0.83 0.57 0.40 0.33 0.26 0.23 0.24 0.25 0.27 0.28 0.29 0.32 0.33 0.45 0.62 0.77 0.82 0.86 0.93 1.01 0.99 1.13 1.24 1.38 1.41 1.35 1.23 1.19 1.27
0.02 0.02 0.02 0.03 0.05 0.06 0.05 0.04 0.05 0.06 0.07 0.15 0.42 0.67 0.68 0.72 0.59 0.40 0.33 0.28 0.24 0.25 0.26 0.31 0.27 0.31 0.28 0.28 0.35 0.46 0.64 0.74 0.73 0.79 0.87 0.96 1.07 1.23 1.30 1.29 1.33 1.29 1.26 1.28
0.02 0.01 0.02 0.04 0.06 0.06 0.07 0.07 0.07 0.08 0.08 0.11 0.20 0.34 0.38 0.42 0.49 0.55 0.42 0.34 0.35 0.38 0.31 0.30 0.27 0.31 0.25 0.27 0.32 0.40 0.48 0.57 0.62 0.71 0.80 0.91 1.00 1.10 1.21 1.19 1.25 1.34 1.32 1.30
0.02 0.01 0.03 0.11 0.15 0.14 0.10 0.09 0.08 0.08 0.08 0.08 0.19 0.34 0.34 0.30 0.34 0.41 0.39 0.41 0.43 0.37 0.36 0.31 0.35 0.35 0.29 0.29 0.34 0.40 0.49 0.59 0.68 0.76 0.87 0.90 0.88 0.96 1.10 1.17 1.20 1.27 1.34 1.37
0.02 0.02 0.03 0.09 0.17 0.20 0.19 0.14 0.10 0.07 0.06 0.06 0.11 0.23 0.23 0.36 0.44 0.39 0.41 0.47 0.43 0.30 0.30 0.32 0.33 0.35 0.40 0.41 0.44 0.50 0.61 0.68 0.74 0.70 0.76 0.84 0.88 1.02 1.16 1.21 1.22 1.26 1.29 1.34
0.02 0.02 0.02 0.02 0.06 0.12 0.18 0.16 0.11 0.06 0.05 0.06 0.07 0.13 0.22 0.38 0.48 0.49 0.48 0.49 0.45 0.34 0.32 0.34 0.37 0.39 0.42 0.48 0.50 0.55 0.67 0.68 0.71 0.84 0.93 1.01 1.04 1.12 1.25 1.34 1.31 1.36 1.38 1.39
0.04 0.04 0.03 0.03 0.05 0.08 0.12 0.14 0.10 0.06 0.06 0.05 0.07 0.15 0.26 0.43 0.49 0.52 0.47 0.43 0.42 0.43 0.38 0.43 0.46 0.46 0.47 0.50 0.57 0.64 0.71 0.76 0.91 1.21 1.31 1.31 1.35 1.40 1.43 1.45 1.43 1.50 1.58 1.75
0.11 0.09 0.07 0.05 0.07 0.09 0.14 0.12 0.10 0.09 0.08 0.08 0.13 0.22 0.30 0.42 0.57 0.64 0.55 0.43 0.42 0.43 0.45 0.50 0.61 0.65 0.60 0.60 0.65 0.74 0.79 0.84 1.00 1.22 1.36 1.43 1.45 1.47 1.55 1.56 1.59 1.64 1.72 1.80
0.19 0.19 0.15 0.10 0.11 0.17 0.16 0.15 0.15 0.13 0.14 0.16 0.25 0.36 0.40 0.42 0.49 0.53 0.45 0.43 0.47 0.48 0.56 0.64 0.64 0.72 0.75 0.78 0.82 0.93 1.06 1.17 1.24 1.34 1.45 1.58 1.61 1.65 1.69 1.68 1.63 1.64 1.70 1.70
0.25 0.27 0.24 0.21 0.20 0.19 0.18 0.21 0.23 0.21 0.27 0.31 0.42 0.52 0.58 0.56 0.54 0.64 0.59 0.55 0.55 0.63 0.70 0.78 0.85 0.85 0.90 1.02 1.09 1.12 1.28 1.42 1.49 1.53 1.70 1.83 1.91 1.97 1.90 1.81 1.80 1.76 1.73 1.59
0.29 0.33 0.38 0.33 0.34 0.34 0.28 0.32 0.31 0.33 0.57 0.55 0.60 0.69 0.75 0.75 0.93 0.99 0.77 0.73 0.66 0.65 0.73 0.79 0.93 1.06 1.04 1.14 1.25 1.30 1.33 1.37 1.45 1.50 1.62 1.79 1.89 2.04 2.12 2.07 2.03 1.93 1.85 1.77
0.42 0.45 0.42 0.42 0.44 0.40 0.38 0.37 0.38 0.69 0.97 0.87 0.84 0.83 0.90 1.02 0.96 0.89 0.76 0.77 0.77 0.69 0.70 0.74 0.82 0.96 1.02 1.09 1.18 1.30 1.35 1.32 1.36 1.36 1.38 1.54 1.74 1.93 2.05 2.13 2.06 2.03 1.96 1.88
0.61 0.65 0.60 0.55 0.70 0.79 0.56 0.46 0.67 0.95 0.96 1.10 1.03 0.98 0.99 1.01 1.01 0.96 0.90 0.89 0.84 0.70 0.68 0.73 0.78 0.84 0.95 1.11 1.30 1.45 1.46 1.44 1.44 1.48 1.59 1.68 1.78 1.78 1.77 1.85 1.88 1.92 1.90 1.82
0.80 0.85 0.83 0.84 0.98 0.91 0.67 0.69 0.76 0.78 0.95 1.06 1.06 1.04 1.03 1.00 0.97 0.92 0.83 0.84 0.90 0.79 0.75 0.73 0.79 0.87 1.00 1.20 1.43 1.65 1.68 1.69 1.70 1.71 1.74 1.76 1.81 1.82 1.83 1.77 1.71 1.67 1.59 1.47
0.90 0.75 0.90 1.10 1.23 1.04 0.88 0.80 0.82 0.90 0.99 1.06 1.09 1.12 1.05 0.96 0.89 0.87 0.84 0.81 0.89 0.88 0.81 0.79 0.80 0.85 0.97 1.07 1.21 1.43 1.55 1.61 1.70 1.64 1.56 1.51 1.49 1.51 1.56 1.59 1.54 1.51 1.47 1.42
0.97 0.95 1.07 1.40 1.59 1.45 1.25 1.05 0.95 1.08 1.23 1.32 1.29 1.18 1.06 1.07 1.09 1.14 1.09 0.97 0.89 0.88 0.90 0.88 0.88 0.91 0.96 1.01 1.05 1.14 1.29 1.41 1.57 1.62 1.55 1.52 1.51 1.48 1.51 1.56 1.63 1.52 1.45 1.41
0.89 1.10 1.32 1.63 1.63 1.66 1.56 1.25 1.15 1.22 1.34 1.38 1.30 1.32 1.28 1.25 1.22 1.12 1.06 0.98 0.90 0.86 0.90 0.96 1.00 1.03 1.01 1.04 1.12 1.21 1.32 1.49 1.66 1.66 1.55 1.54 1.58 1.61 1.61 1.60 1.63 1.67 1.51 1.46

GEFSCGP_prec_meanprecacc_204.txt.gz
Total_Precipitation_Accumulation
0.00 0.00 0.01 0.01 0.01 0.02 0.04 0.07 0.16 0.24 0.20 0.29 0.37 0.47 0.62 0.78 1.00 1.03 1.12 1.21 1.44 1.74 2.15 2.82 3.52 4.08 4.75 5.51 6.09 5.93 5.30 4.79 4.18 3.63 3.07 2.92 2.69 2.43 2.17 1.96 1.72 1.68 1.61 1.43
0.01 0.03 0.03 0.02 0.02 0.03 0.05 0.08 0.14 0.19 0.17 0.17 0.30 0.57 0.72 0.81 0.97 0.92 0.93 0.95 1.14 1.49 2.10 2.89 3.50 3.70 3.71 3.99 4.25 3.75 3.54 3.52 3.10 2.77 2.68 2.52 2.33 2.10 1.88 1.75 1.68 1.39 1.36 1.29
0.02 0.04 0.03 0.03 0.03 0.04 0.07 0.09 0.10 0.17 0.18 0.24 0.38 0.74 0.95 0.87 0.87 0.75 0.72 0.94 1.40 1.80 2.23 2.74 2.90 2.91 2.80 2.79 2.78 2.55 2.48 2.77 2.69 2.62 2.53 2.45 2.39 2.30 2.04 1.71 1.64 1.34 1.18 1.15
0.01 0.03 0.03 0.04 0.05 0.05 0.07 0.06 0.04 0.05 0.13 0.36 0.53 0.95 1.12 1.03 0.97 0.70 0.74 1.13 1.64 1.94 2.20 2.18 1.78 1.67 1.81 1.90 2.00 2.24 2.31 2.42 2.34 2.38 2.17 1.96 1.81 1.70 1.60 1.52 1.54 1.51 1.32 1.19
0.03 0.03 0.03 0.04 0.05 0.04 0.05 0.04 0.03 0.06 0.15 0.40 0.68 1.11 1.31 1.09 0.90 0.66 0.65 0.76 1.15 1.32 1.27 1.05 0.90 0.98 1.21 1.46 1.70 2.08 2.16 2.18 2.08 2.02 2.03 2.05 1.94 1.90 1.76 1.68 1.78 1.76 1.72 1.50
0.04 0.04 0.04 0.03 0.03 0.03 0.04 0.04 0.10 0.21 0.38 0.83 0.90 1.00 1.25 1.05 0.84 0.68 0.54 0.54 0.76 0.79 0.64 0.67 0.72 0.91 1.14 1.31 1.42 1.63 1.80 1.98 2.03 2.04 2.09 2.05 2.00 2.05 1.87 1.71 1.61 1.59 1.62 1.55
0.09 0.08 0.06 0.04 0.03 0.04 0.04 0.05 0.26 0.61 0.90 1.03 0.76 0.89 1.19 0.81 0.56 0.46 0.35 0.31 0.34 0.38 0.48 0.66 0.73 0.90 1.00 1.10 1.12 1.21 1.34 1.56 1.68 1.78 1.90 1.95 1.98 2.01 1.82 1.70 1.58 1.53 1.44 1.38
0.15 0.14 0.08 0.04 0.05 0.05 0.04 0.04 0.11 0.22 0.34 0.54 0.70 1.08 1.17 0.76 0.44 0.27 0.23 0.24 0.23 0.28 0.35 0.40 0.47 0.53 0.65 0.81 0.99 1.13 1.18 1.21 1.24 1.30 1.50 1.69 1.73 1.74 1.67 1.73 1.53 1.43 1.35 1.35
0.05 0.04 0.04 0.04 0.05 0.03 0.04 0.03 0.04 0.06 0.09 0.32 0.74 1.02 0.94 0.60 0.43 0.31 0.29 0.33 0.31 0.29 0.34 0.29 0.29 0.35 0.43 0.49 0.63 0.85 0.94 0.96 0.98 1.06 1.21 1.31 1.37 1.48 1.60 1.58 1.40 1.26 1.29 1.33
0.02 0.02 0.03 0.03 0.03 0.04 0.04 0.03 0.03 0.06 0.10 0.24 0.57 1.06 1.22 0.84 0.59 0.47 0.47 0.42 0.36 0.32 0.31 0.32 0.32 0.33 0.35 0.36 0.48 0.65 0.79 0.85 0.88 0.95 1.03 1.00 1.15 1.25 1.40 1.43 1.37 1.24 1.21 1.29
0.02 0.02 0.02 0.03 0.05 0.06 0.05 0.05 0.05 0.07 0.07 0.16 0.42 0.69 0.70 0.74 0.60 0.44 0.43 0.41 0.38 0.33 0.33 0.38 0.34 0.38 0.34 0.32 0.39 0.51 0.68 0.79 0.76 0.82 0.89 0.99 1.09 1.26 1.32 1.30 1.34 1.30 1.27 1.31
0.02 0.01 0.02 0.04 0.06 0.06 0.07 0.07 0.08 0.08 0.08 0.11 0.21 0.36 0.40 0.44 0.53 0.64 0.52 0.49 0.51 0.46 0.38 0.38 0.36 0.37 0.31 0.32 0.38 0.47 0.56 0.64 0.68 0.75 0.84 0.95 1.04 1.14 1.24 1.21 1.27 1.37 1.35 1.34
0.02 0.02 0.03 0.11 0.16 0.14 0.10 0.09 0.08 0.08 0.08 0.08 0.20 0.35 0.35 0.32 0.37 0.47 0.53 0.60 0.54 0.42 0.41 0.39 0.47 0.44 0.38 0.38 0.41 0.46 0.56 0.66 0.74 0.82 0.92 0.95 0.92 1.00 1.14 1.20 1.24 1.31 1.38 1.42
0.02 0.02 0.03 0.09 0.17 0.21 0.19 0.14 0.11 0.07 0.06 0.06 0.11 0.24 0.25 0.37 0.46 0.42 0.50 0.59 0.52 0.35 0.35 0.44 0.50 0.52 0.58 0.57 0.56 0.60 0.70 0.75 0.80 0.75 0.81 0.89 0.92 1.06 1.20 1.26 1.28 1.32 1.34 1.39
0.02 0.02 0.02 0.02 0.06 0.12 0.18 0.16 0.11 0.07 0.05 0.06 0.08 0.15 0.24 0.41 0.52 0.56 0.55 0.56 0.52 0.43 0.43 0.46 0.54 0.58 0.64 0.69 0.67 0.67 0.77 0.77 0.80 0.94 1.03 1.08 1.09 1.17 1.30 1.38 1.35 1.39 1.42 1.42
0.04 0.04 0.03 0.03 0.06 0.08 0.12 0.14 0.10 0.07 0.06 0.06 0.08 0.16 0.29 0.46 0.52 0.57 0.55 0.50 0.48 0.52 0.51 0.58 0.65 0.70 0.69 0.71 0.78 0.81 0.81 0.83 0.99 1.32 1.44 1.42 1.43 1.47 1.49 1.51 1.49 1.55 1.62 1.79
0.11 0.09 0.07 0.05 0.07 0.09 0.14 0.13 0.10 0.09 0.08 0.09 0.14 0.24 0.32 0.44 0.60 0.68 0.60 0.48 0.47 0.48 0.52 0.58 0.72 0.80 0.77 0.73 0.78 0.88 0.91 0.93 1.09 1.31 1.43 1.50 1.52 1.56 1.66 1.69 1.70 1.73 1.80 1.87
0.19 0.19 0.15 0.10 0.11 0.18 0.16 0.15 0.15 0.13 0.14 0.17 0.28 0.38 0.43 0.45 0.52 0.56 0.48 0.46 0.49 0.51 0.60 0.70 0.73 0.84 0.89 0.91 0.94 1.06 1.18 1.28 1.34 1.42 1.53 1.66 1.67 1.72 1.76 1.76 1.71 1.71 1.79 1.78
0.25 0.27 0.24 0.21 0.20 0.20 0.18 0.21 0.23 0.22 0.28 0.33 0.47 0.59 0.64 0.62 0.60 0.69 0.63 0.58 0.57 0.65 0.74 0.91 1.04 1.03 1.05 1.14 1.21 1.25 1.42 1.56 1.58 1.60 1.75 1.87 1.96 2.03 1.97 1.87 1.86 1.83 1.81 1.68
0.29 0.33 0.38 0.33 0.35 0.35 0.29 0.33 0.32 0.34 0.58 0.58 0.66 0.78 0.84 0.84 1.01 1.06 0.83 0.79 0.71 0.69 0.77 0.87 1.07 1.19 1.17 1.27 1.37 1.42 1.45 1.50 1.56 1.58 1.68 1.85 1.96 2.11 2.18 2.11 2.08 2.00 1.94 1.86
0.42 0.45 0.42 0.42 0.44 0.41 0.39 0.37 0.39 0.72 1.00 0.92 0.91 0.94 1.01 1.12 1.10 1.03 0.87 0.87 0.91 0.81 0.77 0.81 0.88 1.04 1.12 1.20 1.28 1.39 1.43 1.40 1.46 1.46 1.47 1.62 1.83 2.01 2.12 2.20 2.15 2.13 2.07 1.99
0.62 0.66 0.62 0.56 0.71 0.81 0.57 0.47 0.69 0.97 0.99 1.15 1.09 1.08 1.16 1.19 1.18 1.13 1.06 1.00 0.95 0.90 0.83 0.85 0.90 0.95 1.03 1.17 1.37 1.51 1.53 1.51 1.51 1.55 1.65 1.75 1.87 1.92 1.93 1.99 2.03 2.07 2.05 2.00
0.82 0.87 0.86 0.87 1.02 0.94 0.68 0.71 0.79 0.82 1.00 1.10 1.13 1.14 1.17 1.17 1.14 1.05 0.94 0.93 1.01 0.94 0.91 0.86 0.90 1.02 1.17 1.33 1.55 1.76 1.77 1.78 1.77 1.77 1.80 1.83 1.91 1.95 2.00 1.99 1.95 1.92 1.86 1.75
0.92 0.79 0.95 1.16 1.30 1.09 0.92 0.84 0.86 0.96 1.07 1.17 1.26 1.32 1.23 1.10 1.02 1.00 0.96 0.91 0.98 0.99 0.92 0.87 0.86 0.94 1.12 1.22 1.33 1.55 1.67 1.72 1.83 1.77 1.69 1.63 1.62 1.65 1.70 1.75 1.76 1.76 1.70 1.64
1.01 0.99 1.13 1.49 1.71 1.57 1.35 1.11 1.00 1.12 1.30 1.45 1.48 1.41 1.29 1.22 1.20 1.22 1.16 1.02 0.94 0.94 0.95 0.92 0.92 0.95 1.01 1.08 1.14 1.24 1.37 1.49 1.67 1.76 1.72 1.71 1.69 1.64 1.64 1.69 1.73 1.63 1.58 1.57
0.95 1.18 1.42 1.74 1.74 1.81 1.70 1.38 1.23 1.28 1.38 1.45 1.41 1.44 1.42 1.38 1.33 1.20 1.13 1.03 0.94 0.88 0.92 0.99 1.04 1.06 1.04 1.07 1.16 1.27 1.40 1.58 1.76 1.76 1.67 1.68 1.73 1.75 1.73 1.71 1.73 1.76 1.59 1.54

GEFSCGP_prec_meanprecacc_210.txt.gz
Total_Precipitation_Accumulation
0.00 0.00 0.01 0.01 0.01 0.02 0.04 0.07 0.16 0.24 0.20 0.30 0.37 0.47 0.62 0.79 1.01 1.04 1.12 1.22 1.44 1.74 2.15 2.83 3.52 4.08 4.75 5.51 6.10 5.96 5.33 4.81 4.20 3.65 3.09 2.97 2.72 2.45 2.21 2.00 1.76 1.72 1.68 1.49
0.01 0.03 0.03 0.03 0.02 0.03 0.05 0.08 0.14 0.19 0.17 0.17 0.30 0.57 0.73 0.81 0.97 0.92 0.93 0.95 1.14 1.50 2.10 2.89 3.50 3.71 3.71 3.99 4.25 3.75 3.54 3.52 3.11 2.78 2.70 2.54 2.35 2.11 1.90 1.78 1.71 1.43 1.42 1.37
0.02 0.04 0.03 0.03 0.03 0.05 0.07 0.09 0.10 0.17 0.18 0.24 0.38 0.74 0.95 0.88 0.87 0.75 0.72 0.94 1.40 1.80 2.24 2.74 2.90 2.91 2.80 2.79 2.78 2.56 2.49 2.78 2.70 2.64 2.55 2.47 2.41 2.32 2.06 1.72 1.66 1.39 1.23 1.23
0.01 0.03 0.03 0.04 0.05 0.05 0.08 0.06 0.04 0.05 0.13 0.36 0.53 0.95 1.12 1.03 0.97 0.70 0.74 1.13 1.64 1.94 2.20 2.18 1.78 1.67 1.81 1.90 2.00 2.25 2.32 2.43 2.35 2.39 2.18 1.97 1.83 1.71 1.60 1.52 1.55 1.55 1.36 1.25
0.03 0.03 0.03 0.05 0.05 0.04 0.05 0.04 0.03 0.06 0.15 0.40 0.68 1.11 1.31 1.10 0.90 0.66 0.65 0.76 1.15 1.32 1.27 1.05 0.91 0.98 1.21 1.46 1.70 2.09 2.16 2.19 2.08 2.04 2.04 2.06 1.94 1.90 1.77 1.68 1.80 1.78 1.75 1.55
0.04 0.04 0.04 0.03 0.03 0.04 0.04 0.05 0.10 0.21 0.38 0.83 0.90 1.00 1.25 1.05 0.84 0.68 0.54 0.54 0.77 0.79 0.64 0.67 0.72 0.91 1.14 1.31 1.42 1.63 1.81 1.99 2.04 2.05 2.10 2.06 2.01 2.06 1.88 1.72 1.62 1.60 1.64 1.58
0.09 0.09 0.06 0.04 0.03 0.04 0.04 0.06 0.26 0.61 0.90 1.03 0.76 0.89 1.19 0.81 0.56 0.46 0.35 0.31 0.34 0.39 0.49 0.66 0.74 0.92 1.01 1.11 1.13 1.22 1.35 1.56 1.69 1.79 1.91 1.96 1.99 2.02 1.84 1.72 1.59 1.54 1.45 1.40
0.15 0.14 0.08 0.04 0.05 0.05 0.04 0.04 0.11 0.22 0.34 0.55 0.70 1.09 1.17 0.76 0.44 0.27 0.23 0.24 0.24 0.28 0.35 0.41 0.50 0.56 0.67 0.81 1.00 1.14 1.19 1.22 1.25 1.31 1.50 1.70 1.74 1.76 1.69 1.75 1.55 1.44 1.36 1.36
0.05 0.04 0.04 0.04 0.05 0.03 0.04 0.03 0.04 0.06 0.09 0.32 0.74 1.02 0.94 0.60 0.43 0.31 0.30 0.33 0.32 0.30 0.35 0.31 0.33 0.41 0.49 0.52 0.65 0.86 0.94 0.97 1.00 1.08 1.22 1.32 1.39 1.50 1.63 1.61 1.43 1.27 1.31 1.34
0.02 0.02 0.03 0.03 0.04 0.04 0.04 0.04 0.04 0.06 0.10 0.24 0.58 1.06 1.22 0.85 0.59 0.47 0.48 0.42 0.36 0.32 0.31 0.33 0.35 0.37 0.40 0.42 0.52 0.67 0.81 0.87 0.91 0.98 1.05 1.02 1.17 1.27 1.42 1.46 1.39 1.26 1.23 1.31
0.02 0.02 0.03 0.03 0.05 0.06 0.05 0.05 0.05 0.07 0.08 0.16 0.42 0.69 0.70 0.74 0.60 0.44 0.44 0.41 0.38 0.34 0.34 0.39 0.37 0.42 0.38 0.36 0.43 0.54 0.71 0.82 0.80 0.86 0.93 1.02 1.12 1.28 1.34 1.33 1.36 1.33 1.30 1.33
0.02 0.01 0.02 0.04 0.06 0.07 0.07 0.08 0.08 0.08 0.08 0.11 0.21 0.36 0.40 0.44 0.54 0.65 0.53 0.49 0.51 0.47 0.39 0.40 0.39 0.41 0.34 0.36 0.43 0.50 0.59 0.70 0.75 0.81 0.89 0.99 1.08 1.19 1.28 1.25 1.33 1.43 1.41 1.42
0.02 0.02 0.03 0.11 0.16 0.15 0.10 0.09 0.08 0.08 0.08 0.08 0.20 0.35 0.36 0.32 0.38 0.48 0.55 0.61 0.55 0.44 0.43 0.41 0.49 0.47 0.41 0.41 0.46 0.53 0.65 0.76 0.83 0.89 0.98 1.01 0.99 1.06 1.20 1.25 1.29 1.38 1.46 1.51
0.02 0.02 0.03 0.09 0.17 0.21 0.19 0.14 0.11 0.07 0.06 0.06 0.11 0.24 0.26 0.38 0.47 0.45 0.53 0.61 0.53 0.36 0.37 0.47 0.54 0.57 0.64 0.63 0.65 0.73 0.87 0.87 0.88 0.82 0.88 0.97 1.01 1.13 1.27 1.32 1.35 1.38 1.40 1.43
0.02 0.02 0.02 0.02 0.06 0.13 0.19 0.16 0.11 0.07 0.05 0.06 0.08 0.15 0.25 0.42 0.54 0.58 0.57 0.58 0.55 0.48 0.49 0.53 0.61 0.65 0.71 0.76 0.75 0.75 0.84 0.85 0.87 1.02 1.12 1.17 1.17 1.25 1.38 1.47 1.44 1.49 1.50 1.49
0.04 0.04 0.03 0.04 0.06 0.08 0.12 0.14 0.10 0.07 0.06 0.06 0.08 0.17 0.30 0.47 0.54 0.60 0.57 0.53 0.53 0.59 0.59 0.65 0.71 0.76 0.76 0.77 0.84 0.90 0.93 0.95 1.08 1.42 1.56 1.53 1.53 1.56 1.57 1.59 1.59 1.67 1.73 1.87
0.11 0.09 0.08 0.05 0.07 0.09 0.14 0.13 0.11 0.09 0.08 0.09 0.14 0.24 0.33 0.46 0.62 0.71 0.63 0.51 0.50 0.51 0.56 0.64 0.78 0.87 0.84 0.82 0.86 0.95 1.04 1.10 1.23 1.46 1.57 1.61 1.62 1.64 1.75 1.79 1.81 1.87 1.97 2.02
0.19 0.19 0.16 0.11 0.11 0.18 0.17 0.16 0.16 0.14 0.15 0.18 0.29 0.39 0.44 0.47 0.55 0.60 0.51 0.49 0.52 0.53 0.63 0.74 0.77 0.88 0.95 0.99 1.02 1.14 1.29 1.41 1.47 1.58 1.74 1.83 1.79 1.80 1.85 1.87 1.82 1.84 1.96 1.98
0.25 0.27 0.24 0.22 0.21 0.20 0.19 0.22 0.24 0.23 0.28 0.34 0.48 0.60 0.66 0.65 0.63 0.72 0.66 0.61 0.61 0.70 0.79 0.95 1.09 1.08 1.12 1.23 1.32 1.36 1.54 1.63 1.66 1.71 1.90 2.02 2.09 2.17 2.08 1.97 1.97 1.98 1.98 1.85
0.29 0.33 0.39 0.34 0.35 0.35 0.29 0.34 0.32 0.35 0.60 0.58 0.67 0.79 0.86 0.85 1.03 1.08 0.86 0.82 0.75 0.74 0.82 0.92 1.11 1.26 1.26 1.39 1.48 1.50 1.52 1.57 1.64 1.68 1.80 1.96 2.06 2.23 2.32 2.21 2.18 2.10 2.03 1.94
0.42 0.46 0.43 0.43 0.45 0.42 0.39 0.38 0.40 0.73 1.02 0.92 0.92 0.95 1.02 1.14 1.12 1.05 0.90 0.91 0.96 0.88 0.83 0.85 0.92 1.09 1.19 1.26 1.32 1.43 1.48 1.46 1.56 1.59 1.58 1.74 1.95 2.12 2.23 2.29 2.24 2.22 2.15 2.05
0.63 0.66 0.62 0.57 0.72 0.82 0.57 0.47 0.70 0.99 1.00 1.16 1.10 1.10 1.17 1.21 1.21 1.18 1.12 1.08 1.01 0.95 0.88 0.89 0.94 1.00 1.08 1.20 1.39 1.55 1.58 1.57 1.59 1.64 1.73 1.84 1.99 2.07 2.06 2.09 2.13 2.17 2.16 2.09
0.83 0.88 0.87 0.88 1.03 0.95 0.69 0.71 0.80 0.84 1.02 1.12 1.14 1.15 1.19 1.20 1.18 1.09 0.98 0.97 1.04 0.97 0.95 0.90 0.93 1.04 1.20 1.37 1.58 1.79 1.81 1.82 1.82 1.83 1.87 1.91 2.00 2.07 2.11 2.09 2.06 2.02 1.94 1.81
0.93 0.80 0.96 1.18 1.32 1.11 0.94 0.86 0.88 0.98 1.09 1.19 1.28 1.34 1.26 1.13 1.04 1.02 0.98 0.95 1.02 1.04 0.98 0.94 0.92 0.98 1.17 1.30 1.40 1.62 1.73 1.78 1.89 1.83 1.77 1.71 1.70 1.73 1.77 1.82 1.84 1.84 1.79 1.72
1.02 1.00 1.15 1.51 1.73 1.59 1.38 1.15 1.03 1.15 1.32 1.48 1.50 1.43 1.31 1.25 1.21 1.24 1.19 1.05 0.98 0.97 1.00 0.98 0.99 1.02 1.08 1.15 1.21 1.30 1.45 1.57 1.74 1.82 1.80 1.80 1.76 1.70 1.70 1.76 1.81 1.70 1.66 1.66
0.95 1.19 1.44 1.77 1.77 1.84 1.73 1.40 1.26 1.31 1.41 1.48 1.44 1.47 1.45 1.41 1.35 1.22 1.15 1.06 0.97 0.92 0.95 1.02 1.08 1.12 1.10 1.13 1.22 1.32 1.46 1.63 1.81 1.81 1.73 1.73 1.77 1.79 1.79 1.77 1.81 1.85 1.66 1.60